Regional Weather Roundup
Issued by NWS Charleston, WV

Home | Current Version | Previous Version | Graphics & Text | Print | Product List | Glossary On
Versions: 1 2 3 4 5 6 7 8 9 10 11 12 13 14 15 16 17 18 19 20 21 22 23 24 25 26 27
000
ASUS41 KRLX 120610
RWRRLX
West Virginia Regional Weather Roundup
National Weather Service Charleston WV
100 AM EST TUE DEC 12 2017

Note: "fair" indicates few or no clouds below 12,000 feet with no
significant weather and/or obstructions to visibility.

WVZ003-120700-
Northern Panhandle of West Virginia

CITY           SKY/WX    TMP DP  RH WIND       PRES   REMARKS
WHEELING       CLOUDY    39  23  52 S12       29.58F
$$

WVZ009-120700-
Northwest West Virginia

CITY           SKY/WX    TMP DP  RH WIND       PRES   REMARKS
PARKERSBURG    CLOUDY    45  27  49 SW13G24   29.67F
$$

WVZ006-120700-
Western West Virginia

CITY           SKY/WX    TMP DP  RH WIND       PRES   REMARKS
HUNTINGTON     CLEAR     48  27  44 W10G21    29.71S
$$

WVZ015-120700-
West Central West Virginia

CITY           SKY/WX    TMP DP  RH WIND       PRES   REMARKS
CHARLESTON     MOCLDY    52  27  38 SW14G26   29.69S
$$

WVZ022-031-120700-
North Central West Virginia

CITY           SKY/WX    TMP DP  RH WIND       PRES   REMARKS
CLARKSBURG     CLOUDY    41  27  57 SW8       29.65F
MORGANTOWN     MOCLDY    45  25  45 S10G17    29.63F
$$

WVZ025-035-042-045-120700-
Southern West Virginia

CITY           SKY/WX    TMP DP  RH WIND       PRES   REMARKS
BECKLEY        PTCLDY    44  25  47 SW8       29.71F
LOGAN            N/A     50  27  40 W10G20    29.71F
BLUEFIELD      PTCLDY    43  24  47 W20G31    29.73F
LEWISBURG      PTCLDY    30  26  84 CALM      29.73F
$$

WVZ047-120700-
Northern Mountains of West Virginia

CITY           SKY/WX    TMP DP  RH WIND       PRES   REMARKS
ELKINS         CLOUDY    31  26  82 CALM      29.67F
$$

WVZ052-120700-
Eastern Panhandle of West Virginia

CITY           SKY/WX    TMP DP  RH WIND       PRES   REMARKS
MARTINSBURG    MOCLDY    39  27  62 S5        29.72F
PETERSBURG     PTCLDY    29  25  86 CALM      29.68F
$$




USA.gov is the U.S. government's official web portal to all federal, state and local government web resources and services.